Weather Roundup
Issued by NWS Springfield, MO

Home | Current Version | Previous Version | Text Only | Print | Product List | Glossary On
Versions: 1 2 3 4 5 6 7 8 9 10 11 12 13 14 15 16 17 18 19 20 21 22 23 24 25 26 27 28 29 30 31 32 33 34 35 36 37 38 39 40 41 42 43 44 45 46 47 48 49 50
000
NZUS99 KSGF 031807
HRRSGF

HOURLY WEATHER
NATIONAL WEATHER SERVICE SPRINGFIELD MO
1200 PM CST TUE MAR 03 2015

......SGF CWA......

CITY           SKY/WX    TMP DP  RH WIND       PRES   REMARKS
SPRINGFIELD    CLOUDY    49  46  90 SW22G31   29.85R
6HR MIN TEMP:  34; 6HR MAX TEMP:  49; 6HR PCP: TRACE;

JOPLIN         CLOUDY    47  44  90 SW23G30   29.86R
6HR MIN TEMP:  38; 6HR MAX TEMP:  48;

WEST PLAINS    CLOUDY    46  44  93 SW12      29.89F
6HR MIN TEMP:  33; 6HR MAX TEMP:  46;

ROLLA          CLOUDY    46  43  89 SW14      29.79R
6HR MIN TEMP:  34; 6HR MAX TEMP:  46;

OSAGE BEACH    CLOUDY    48  43  81 SW15G25   29.81R
BRANSON        CLOUDY    54  48  82 SW15G23   29.88F

......SURROUNDING SGF CWA......

CITY           SKY/WX    TMP DP  RH WIND       PRES   REMARKS
CHANUTE        CLOUDY    48  42  80 SW15      29.84R
PARSONS        CLOUDY    49  43  80 SW14G21   29.86S
COFFEYVILLE    CLOUDY    47  42  83 SW12      29.88R
EMPORIA        CLOUDY    48  37  65 W16G25    29.81R
GROVE OK       CLOUDY    52  52 100 SW14G21   29.89F
ROGERS AR      CLOUDY    48  46  93 SW15      29.90F
SILOAM SPRINGS CLOUDY    45  41  87 SW13G22   29.92F
HARRISON AR    CLOUDY    55  51  86 SW16G31   29.90S
NEAR YELLVILLE CLOUDY    55  46  71 SW7       29.90F

......KANSAS AND MISSOURI......

CITY           SKY/WX    TMP DP  RH WIND       PRES   REMARKS
KANSAS CTY INT CLOUDY    46  37  71 W15       29.79R
DOWNTOWN KC    CLOUDY    48  38  68 W10       29.78R
COLUMBIA       CLOUDY    45  40  82 W14G23    29.79R
SEDALIA        CLOUDY    43  39  86 SW16G26   29.82R
ST JOSEPH      CLOUDY    42  35  76 NW14      29.81R
ST LOUIS       DRIZZLE   46  43  87 W7        29.80R FOG
SPIRIT OF STL  CLOUDY    47  43  86 SW14      29.79R
KIRKSVILLE     CLOUDY    38  38 100 W10       29.74R FOG     WCI  31
WICHITA        CLOUDY    50  39  66 W12       29.83F
TOPEKA         CLOUDY    46  35  65 NW16G22   29.82R
OLATHE         CLOUDY    46  40  79 W12       29.78R

......TENNESSEE......

CITY           SKY/WX    TMP DP  RH WIND       PRES   REMARKS
MEMPHIS        DRZL/FOG  55  53  93 S12       30.02F VSB 1/2
NASHVILLE      CLOUDY    60  55  83 SW15      30.04F

......ARKANSAS.......

CITY           SKY/WX    TMP DP  RH WIND       PRES   REMARKS
FAYETTEVILLE   CLOUDY    47  47 100 SW16G23   29.92F FOG
FT SMITH       FOG       39  38  96 E3        29.99F VSB 3/4
LITTLE ROCK    LGT RAIN  44  40  85 SW5       30.04F FOG

......OKLAHOMA.......

CITY           SKY/WX    TMP DP  RH WIND       PRES   REMARKS
TULSA          CLOUDY    50  46  86 S16       29.85F
PONCA CITY     CLOUDY    47  40  76 W9        29.86R
MCALESTER      CLOUDY    44  43  96 S9        29.97F FOG
OKLAHOMA CITY  CLOUDY    51  42  71 S14       29.87F

......IOWA............

CITY           SKY/WX    TMP DP  RH WIND       PRES   REMARKS
DES MOINES     CLOUDY    35  30  82 NW20      29.73R WCI  24
QUAD CITIES    CLOUDY    33  30  88 SW14      29.70R FOG     WCI  23

......ILLINOIS........

CITY           SKY/WX    TMP DP  RH WIND       PRES   REMARKS
QUINCY         FOG       37  35  92 SW15      29.76R VSB 1   WCI  28
CHICAGO        FRZ DRZL  32  30  92 SW20G26   29.65F FOG     WCI  20



USA.gov is the U.S. government's official web portal to all federal, state and local government web resources and services.